St. Paul, MN

7:40 PM CDT on August 16, 2017 (GMT -0500)
Saint Paul Downtown-Holman

Weather History for KSTP - February, 2015

Change the Weather History Date:

Monday, February 16, 2015

  Actual Average Record
Temperature  
Mean Temperature 14 °F -  
Max Temperature 19 °F 29 °F 48 °F (2011)
Min Temperature 9 °F 15 °F 0 °F (2001)
Degree Days  
Heating Degree Days 51    
Moisture  
Dew Point 7 °F    
Average Humidity 72    
Maximum Humidity 81    
Minimum Humidity 62    
Precipitation  
Precipitation 0.00 in - - ()
Sea Level Pressure  
Sea Level Pressure 30.13 in    
Wind  
Wind Speed 7 mph (SSW)    
Max Wind Speed 18 mph    
Max Gust Speed -    
Visibility 7 miles    
Events Snow    
Averages and records for this station are not official NWS values.
T = Trace of Precipitation, MM = Missing Value Source: NWS Daily Summary

Daily Weather History Graph

Daily Weather History Graph

Search for Another Location

Airport or City:

Trip Planner

Search our weather history database for the weather conditions in past years. The results will help you decide how hot, cold, wet, or windy it might be!

Date:

Astronomy

Feb. 16, 2015 Rise Set
Actual Time 7:11 AM CST 5:41 PM CST
Civil Twilight 6:41 AM CST 6:11 PM CST
Nautical Twilight 6:07 AM CST 6:45 PM CST
Astronomical Twilight 5:33 AM CST 7:19 PM CST
Moon 5:10 AM CST (2/16) 3:17 PM CST (2/16)
Length of Visible Light 11h 29m
Length of Day
10h 29m
Waning Crescent, 7% of the Moon is Illuminated
Feb 16
Waning Crescent
Feb 18
New
Feb 25
First Quarter
Mar 5
Full
Mar 13
Last Quarter

Hourly Weather History & Observations

Time (CST) Temp. Windchill Dew Point Humidity Pressure Visibility Wind Dir Wind Speed Gust Speed Precip Events Conditions
12:53 AM 9.0 °F -2.2 °F -0.0 °F 67% 30.34 in 10.0 mi SSE 6.9 mph - N/A   Overcast
1:53 AM 10.0 °F -1.9 °F -0.0 °F 64% 30.31 in 10.0 mi South 8.1 mph - N/A   Overcast
2:53 AM 10.0 °F -2.9 °F -0.0 °F 64% 30.30 in 10.0 mi South 9.2 mph - N/A   Overcast
3:53 AM 10.0 °F 1.8 °F -0.0 °F 64% 30.27 in 10.0 mi South 4.6 mph - N/A   Overcast
4:53 AM 10.0 °F -0.9 °F 1.0 °F 67% 30.25 in 10.0 mi South 6.9 mph - N/A   Overcast
5:53 AM 10.0 °F -0.9 °F 1.9 °F 70% 30.23 in 10.0 mi South 6.9 mph - N/A   Overcast
6:53 AM 10.0 °F -1.9 °F 3.0 °F 73% 30.22 in 10.0 mi South 8.1 mph - 0.00 in   Overcast
7:53 AM 10.0 °F -2.9 °F 3.9 °F 76% 30.22 in 9.0 mi South 9.2 mph - N/A   Overcast
8:53 AM 10.9 °F -1.8 °F 6.1 °F 81% 30.20 in 3.0 mi South 9.2 mph - 0.00 in Snow Light Snow
9:50 AM 12.2 °F 0.7 °F 6.8 °F 79% 30.14 in 3.0 mi South 8.1 mph - 0.00 in Snow Light Snow
9:53 AM 12.0 °F 0.5 °F 7.0 °F 80% 30.18 in 3.0 mi SSE 8.1 mph - 0.00 in Snow Light Snow
10:40 AM 14.0 °F 3.9 °F 9.0 °F 80% 30.12 in 3.0 mi SSE 6.9 mph - 0.00 in Snow Light Snow
10:53 AM 14.0 °F 3.9 °F 8.1 °F 77% 30.16 in 4.0 mi SSE 6.9 mph - 0.00 in Snow Light Snow
11:53 AM 17.1 °F 8.7 °F 10.0 °F 74% 30.13 in 5.0 mi SW 5.8 mph - 0.00 in   Haze
12:13 PM 17.1 °F 10.0 °F 10.0 °F 74% 30.08 in 5.0 mi SSW 4.6 mph - 0.00 in   Haze
12:20 PM 17.1 °F 11.7 °F 10.0 °F 74% 30.08 in 6.0 mi Variable 3.5 mph - 0.00 in   Haze
12:29 PM 17.1 °F 8.7 °F 10.9 °F 77% 30.07 in 4.0 mi South 5.8 mph - 0.00 in Snow Light Snow
12:53 PM 19.0 °F 9.0 °F 12.0 °F 74% 30.09 in 5.0 mi WSW 8.1 mph - 0.00 in Snow Light Snow
1:53 PM 19.9 °F 13.4 °F 12.0 °F 71% 30.06 in 5.0 mi WSW 4.6 mph - 0.00 in   Haze
2:53 PM 19.9 °F - 14.0 °F 78% 30.05 in 1.8 mi Calm Calm - 0.00 in Snow Light Snow
3:14 PM 19.9 °F - 15.1 °F 81% 30.01 in 1.2 mi Calm Calm - 0.00 in Snow Light Snow
3:17 PM 19.9 °F - 15.1 °F 81% 30.01 in 2.0 mi Calm Calm - 0.00 in Snow Light Snow
3:20 PM 19.9 °F 14.9 °F 15.1 °F 81% 30.01 in 4.0 mi NNW 3.5 mph - 0.00 in Snow Light Snow
3:53 PM 19.9 °F 6.7 °F 12.9 °F 74% 30.05 in 3.0 mi NW 13.8 mph - 0.00 in Snow Light Snow
4:53 PM 19.0 °F 6.1 °F 10.9 °F 71% 30.05 in 8.0 mi NW 12.7 mph - 0.00 in Snow Light Snow
5:53 PM 17.1 °F 2.5 °F 9.0 °F 71% 30.07 in 10.0 mi NW 15.0 mph - 0.00 in   Overcast
6:53 PM 16.0 °F 3.6 °F 5.0 °F 62% 30.08 in 10.0 mi WNW 10.4 mph - N/A   Scattered Clouds
7:53 PM 15.1 °F 2.5 °F 6.1 °F 68% 30.08 in 10.0 mi West 10.4 mph - N/A   Mostly Cloudy
8:53 PM 15.1 °F 4.2 °F 6.1 °F 68% 30.08 in 10.0 mi NW 8.1 mph - N/A   Overcast
9:53 PM 15.8 °F 2.1 °F 5.0 °F 62% 30.05 in 10.0 mi NW 12.7 mph - N/A   Overcast
10:53 PM 12.9 °F -4.4 °F 3.0 °F 65% 30.09 in 10.0 mi NW 18.4 mph - N/A   Overcast
11:53 PM 10.9 °F - 1.0 °F 64% 30.09 in 10.0 mi North - - N/A   Overcast